Flag for Morocco Weather past 2 weeks in Marrakech, Morocco

Now
79 °F

Broken clouds.


Feels Like: 79 °F
Forecast: 65 / 77 °F
Wind: 7 mph from West

Location: Marrakech Airport

Current Time: Sep 18, 2014 at 2:39:29 PM

Latest Report: Sep 18, 2014 at 2:00 PM


Visibility: N/A

Pressure: 29.95 "Hg

Humidity: 45%

Dew point: 55 °F

Location of MarrakechLocation

Historic Weather in Marrakech — Graph

°F

Marrakech temperature yesterday

Maximum temperature yesterday: 84 °F (at 4:30 PM)
Minimum temperature yesterday: 70 °F (at 5:00 AM)
Average temperature yesterday: 75 °F

Past Weeks' High & Low Weather Summary

 TemperatureHumidityPressure
High97 °F (Sep 3, 5:00 PM)100% (Sep 7, 5:30 AM)30.12 "Hg (Sep 7, 5:30 AM)
Low64 °F (Sep 10, 7:30 AM)22% (Sep 13, 3:30 PM)29.86 "Hg (Sep 16, 6:00 AM)
Average79 °F58%30.01 "Hg
* Reported Sep 3 1:00 PM — Sep 18 1:30 PM, Marrakech, Weather by CustomWeather, © 2014

Note: Actual official high and low records may vary slightly from our data, if they occured in-between our weather recording intervals... More about our weather records

Advertising

Marrakech weather history for previous 24 hours

 ConditionsComfort  
Time TempWeatherWind HumidityBarometerVisibility
1:30 PM
Sep 18
77 °FBroken clouds.9 mph51%29.95 "HgN/A
1:00 PM77 °FBroken clouds.10 mph54%29.98 "HgN/A
12:30 PM75 °FBroken clouds.8 mph61%29.98 "HgN/A
12:00 PM75 °FBroken clouds.8 mph61%29.98 "HgN/A
11:30 AM75 °FBroken clouds.8 mph61%29.98 "HgN/A
11:00 AM73 °FPartly sunny.8 mph65%29.98 "HgN/A
10:30 AM72 °FPartly sunny.8 mph73%29.98 "HgN/A
10:00 AM70 °FPartly sunny.7 mph83%29.95 "HgN/A
9:30 AM70 °FPartly sunny.7 mph83%29.95 "HgN/A
9:00 AM68 °FScattered clouds.7 mph83%29.95 "HgN/A
8:30 AM68 °FPartly sunny.5 mph83%29.95 "HgN/A
8:00 AM68 °FPartly sunny.2 mph88%29.95 "HgN/A
7:30 AM68 °FBroken clouds.3 mph88%29.92 "HgN/A
7:00 AM68 °FPartly cloudy.3 mph88%29.92 "HgN/A
6:30 AM68 °FPassing clouds.5 mph88%29.92 "HgN/A
6:00 AM68 °FPassing clouds.5 mph88%29.92 "HgN/A
5:30 AM68 °FPassing clouds.5 mph83%29.95 "HgN/A
5:00 AM68 °FPassing clouds.6 mph83%29.92 "HgN/A
4:30 AM68 °FPassing clouds.5 mph83%29.92 "HgN/A
4:00 AM68 °FPassing clouds.6 mph83%29.95 "HgN/A
3:30 AM68 °FPassing clouds.5 mph83%29.95 "HgN/A
3:00 AM68 °FPassing clouds.6 mph78%29.95 "HgN/A
2:30 AM70 °FPassing clouds.8 mph78%29.95 "HgN/A
2:00 AM70 °FPassing clouds.6 mph73%29.95 "HgN/A
1:30 AM70 °FPassing clouds.7 mph73%29.95 "HgN/A
1:00 AM70 °FPassing clouds.7 mph73%29.95 "HgN/A
12:30 AM70 °FPassing clouds.7 mph78%29.95 "HgN/A
12:00 AM72 °FPassing clouds.8 mph69%29.95 "HgN/A
11:30 PM
Sep 17
72 °FPassing clouds.8 mph73%29.95 "HgN/A
11:00 PM73 °FPassing clouds.8 mph65%29.95 "HgN/A
10:30 PM73 °FPassing clouds.7 mph65%29.95 "Hg6 mi
10:00 PM73 °FPassing clouds.7 mph61%29.95 "HgN/A
9:30 PM75 °FPassing clouds.10 mph57%29.95 "HgN/A
9:00 PM75 °FPassing clouds.10 mph54%29.92 "HgN/A
8:30 PM77 °FPassing clouds.13 mph51%29.92 "HgN/A
8:00 PM79 °FPassing clouds.14 mph51%29.92 "HgN/A
7:30 PM81 °FScattered clouds.13 mph48%29.89 "HgN/A
7:00 PM81 °FPartly sunny.12 mph51%29.89 "HgN/A
6:30 PM82 °FPartly sunny.10 mph48%29.89 "HgN/A
6:00 PM82 °FPartly sunny.9 mph48%29.89 "HgN/A
5:30 PM84 °FPartly sunny.9 mph45%29.89 "HgN/A
5:00 PM84 °FPartly sunny.7 mph48%29.89 "HgN/A
4:30 PM84 °FPartly sunny.6 mph45%29.89 "HgN/A
4:00 PM82 °FPartly sunny.3 mph48%29.89 "HgN/A
3:30 PM82 °FPartly sunny.5 mph51%29.92 "HgN/A
3:00 PM81 °FPartly sunny.5 mph54%29.92 "HgN/A
2:30 PM81 °FPartly sunny.3 mph54%29.92 "HgN/A
2:00 PM82 °FPartly sunny.6 mph51%29.92 "HgN/A
Weather by CustomWeather, © 2014

See weather overviewHow to use our weather pages